Tracking 29591 objects as of 19-Sep-2024
HD Live streaming from Space Station
objects crossing your sky now

THOR ABLESTAR DEB

Track THOR ABLESTAR DEB now!
10-day predictions


NORAD ID: 475
Int'l Code: 1961-015FM
Perigee: 735.7 km
Apogee: 943.4 km
Inclination: 66.2 °
Period: 101.6 minutes
Semi major axis: 7210 km
RCS: 0.0538 m2 (small)
Launch date: June 29, 1961
Source: United States (US)
Launch site: AIR FORCE EASTERN TEST RANGE (AFETR)

Note: This is SATELLITE DEBRIS
Your satellite tracking list
Your tracking list is empty




NASA's NSSDC Master Catalog

Two Line Element Set (TLE):
1 00475U 61015FM  24262.36965457  .00009352  00000-0  41544-2 0  9999
2 00475  66.2214 252.8179 0144022 138.8758 222.3293 14.17925507197276
Source of the keplerian elements: AFSPC